RH
71 76 78 79 81 79 79 77 81 84 78 75 69 61 54 40 30 27 24 20 17 16 17 19 19 20 23 28 31 33 36 36 36 40 45 46 46 49 50 45 38 38 43 51 55 54 57 50 36 36 46 50 50 67 91 102 103 103 104 99 95 93 96 102 101 100 99 99 100 105 106 102 97 92 91 86 79 72 68 71 78 83 83 82 80 77 76 76 77 74 71 68 66 65 64 63 64
80 85 87 88 85 82 83 83 83 79 72 68 62 54 41 28 24 24 21 19 17 19 21 21 22 24 26 31 36 40 41 40 42 44 48 52 53 56 58 55 47 44 49 55 60 61 68 70 55 44 49 55 53 60 78 98 104 102 102 101 99 95 92 96 101 103 102 100 98 99 102 102 102 99 97 94 90 84 74 69 73 82 87 87 87 87 87 86 83 79 75 73 70 68 65 64 63
86 88 88 86 84 83 87 83 77 72 68 63 58 46 30 24 24 22 19 19 19 21 24 22 24 28 31 36 42 48 47 42 46 50 55 60 61 63 63 62 57 53 58 63 65 67 76 83 75 60 58 61 59 61 71 90 102 101 101 102 104 103 99 94 96 100 101 103 102 99 98 98 98 98 99 99 99 98 92 84 78 80 86 90 92 93 94 92 88 83 81 78 76 73 72 71 69
92 91 87 84 84 84 84 78 72 68 64 59 51 35 24 24 23 21 20 20 22 24 26 24 25 31 38 44 48 54 51 47 51 56 61 67 71 73 73 71 69 65 67 72 73 73 80 90 91 78 69 72 71 68 69 82 96 101 101 100 100 103 105 102 97 94 93 96 100 102 101 99 97 95 94 95 97 99 99 97 93 89 89 91 93 95 95 93 91 88 86 83 81 80 78 77 76
95 93 88 84 83 81 77 72 67 62 55 50 40 27 22 23 21 21 22 23 26 27 28 28 29 32 43 50 52 56 54 54 58 58 65 74 81 85 85 81 77 76 77 82 83 82 85 94 102 95 84 82 83 83 77 80 90 96 99 101 101 99 102 106 103 99 95 92 91 94 97 98 96 95 93 92 92 95 96 96 95 95 94 93 92 93 94 94 93 91 89 86 82 79 77 76 78
93 91 87 81 78 74 69 66 60 51 43 37 30 24 23 22 22 23 25 27 29 31 32 33 34 35 42 50 53 57 58 61 64 63 70 78 88 95 96 91 87 85 85 91 94 94 94 98 106 106 99 92 90 95 93 89 88 88 91 96 99 99 99 102 105 107 103 98 95 90 91 94 94 95 94 93 92 94 96 96 95 95 98 97 94 92 94 97 97 95 92 89 85 81 79 77 79
90 86 80 76 74 69 64 59 48 39 32 28 26 24 23 23 24 26 28 31 33 35 37 39 40 40 41 46 51 56 60 65 69 71 74 81 90 99 104 102 100 96 92 97 101 101 101 103 107 107 106 100 95 100 103 99 95 94 94 94 96 97 95 92 96 103 104 105 106 100 95 95 97 98 97 96 94 93 94 94 94 94 97 99 98 95 95 96 96 95 93 91 90 87 84 82 80
84 78 76 74 70 64 58 47 36 30 27 25 25 25 25 27 28 30 32 35 37 38 41 44 47 47 44 45 50 53 59 64 69 73 76 83 90 98 107 108 107 107 101 101 104 103 102 102 105 107 108 105 97 96 102 101 99 102 105 104 104 103 100 92 86 88 92 98 104 105 102 100 99 100 103 104 101 98 96 95 94 95 97 98 99 97 95 92 90 92 94 94 92 91 90 87 84
79 78 76 70 64 58 48 35 28 27 26 25 24 25 27 28 31 33 35 39 40 40 42 46 51 54 50 47 48 50 56 62 67 72 77 87 95 99 107 108 107 109 106 104 105 104 102 100 101 104 106 109 103 95 95 97 96 98 102 106 107 107 104 100 95 90 85 85 88 92 97 100 100 100 101 104 104 101 101 101 100 100 101 102 102 103 103 98 95 94 95 97 97 97 96 95 94
81 78 71 63 57 48 36 28 27 26 27 26 25 28 32 32 33 34 35 37 38 41 41 46 52 55 57 55 50 50 56 63 68 72 79 90 99 102 106 106 103 103 103 104 104 104 104 101 99 100 102 106 109 103 97 94 95 97 99 101 104 106 103 100 102 99 94 87 84 85 87 92 95 95 95 96 98 99 100 101 101 101 102 103 103 105 107 106 103 101 101 101 103 104 104 104 104
79 71 62 56 46 35 28 27 27 27 29 28 29 34 39 40 40 39 38 37 35 37 38 43 50 49 55 57 51 53 58 64 70 75 79 87 100 106 108 107 103 102 101 101 102 103 104 101 99 100 100 101 106 108 104 100 98 100 102 101 100 102 101 100 99 98 99 95 87 83 82 85 89 90 91 93 96 100 101 98 99 101 104 105 103 103 105 106 105 104 104 104 105 107 109 109 108
68 60 52 44 34 27 26 28 28 29 31 31 33 37 40 41 41 42 42 39 34 34 33 36 43 46 51 51 49 54 62 68 71 74 77 83 96 106 109 106 103 102 100 101 101 101 102 101 101 102 101 100 101 104 106 107 104 102 103 104 103 102 100 100 99 98 100 100 94 88 84 82 86 89 91 92 95 102 105 103 101 103 105 106 105 105 104 104 105 104 103 103 103 105 106 106 106
55 46 39 33 28 26 27 30 30 32 33 31 35 37 36 36 35 37 38 37 35 34 33 32 37 41 46 48 52 58 65 70 72 75 77 82 93 103 108 105 102 102 100 101 101 100 101 101 100 100 100 100 100 100 103 104 105 106 105 103 103 103 103 102 101 100 101 102 104 105 100 94 93 94 94 93 95 98 101 103 103 103 104 104 106 108 106 103 102 101 100 100 99 98 98 99 100
42 34 30 29 28 28 28 30 31 35 35 29 32 33 31 30 30 30 31 33 33 34 35 35 35 36 39 45 56 70 77 76 75 77 78 81 88 98 107 105 103 102 100 101 101 100 101 101 100 99 100 100 101 100 101 101 101 104 105 105 103 101 99 100 101 102 104 105 106 109 106 104 105 105 103 98 96 95 96 98 99 100 100 100 102 106 109 107 104 104 103 102 101 99 98 97 97
33 29 29 31 30 28 28 29 32 34 32 27 28 28 27 26 25 26 26 29 30 30 33 35 34 36 41 45 52 68 85 91 88 84 80 78 80 89 101 107 107 102 100 101 101 100 100 101 101 100 100 101 101 100 100 101 100 101 102 104 104 102 99 97 96 96 98 102 105 107 104 105 106 107 108 105 101 98 98 98 98 100 102 102 99 102 109 109 107 107 106 106 104 102 100 99 99
30 30 32 32 30 28 27 28 28 28 26 24 23 22 23 22 22 24 24 26 27 26 28 29 27 31 43 52 55 61 77 93 97 92 87 81 77 78 87 100 107 106 105 102 100 101 100 101 102 102 100 100 99 100 102 101 99 101 102 100 101 103 102 100 99 95 92 93 94 98 100 103 105 105 107 108 107 104 103 102 102 103 106 106 103 102 104 105 106 105 105 107 106 100 96 95 94
33 34 34 32 28 27 25 24 23 22 21 20 18 18 19 18 19 22 23 25 25 25 26 23 21 25 34 45 56 68 78 85 89 89 90 90 85 80 78 85 96 105 109 106 103 102 102 101 100 100 102 101 98 98 100 101 101 102 101 100 101 102 102 101 100 100 97 95 91 89 89 90 92 94 97 101 103 104 105 106 104 103 102 103 102 99 96 95 98 100 102 104 104 102 99 96 93
36 35 33 29 26 24 22 21 20 19 19 17 17 18 18 19 20 22 25 25 26 28 27 20 20 25 29 34 44 61 74 81 86 88 87 88 89 88 84 80 84 95 104 107 105 103 103 104 103 100 101 102 101 101 99 99 102 101 98 98 100 101 102 101 101 99 97 98 97 93 91 89 87 85 84 85 87 90 94 95 95 93 91 91 90 88 86 85 86 90 93 95 97 99 99 96 94
36 33 29 25 22 21 19 17 16 16 18 17 18 20 21 22 24 27 28 28 30 31 24 18 22 28 30 34 39 46 55 66 79 87 87 85 84 86 89 87 83 86 96 104 106 104 102 102 103 103 104 101 100 102 100 99 101 99 96 94 96 96 97 99 101 99 96 97 98 96 95 95 96 94 90 86 84 83 83 83 81 80 78 78 77 75 73 73 74 77 80 82 84 87 88 86 85
33 29 25 21 19 18 16 15 15 16 18 19 21 22 24 24 25 28 29 32 33 28 19 18 25 29 31 36 42 44 44 48 57 69 81 87 85 82 83 87 87 85 88 95 101 105 104 99 98 99 102 102 103 103 101 100 101 101 99 98 98 97 95 94 95 96 97 99 99 98 96 94 94 95 94 92 90 89 87 85 83 80 78 75 72 70 67 64 63 63 65 66 68 70 72 72 72
28 24 21 18 17 17 15 15 16 17 19 21 22 23 24 24 24 26 27 31 29 20 15 20 26 30 33 36 40 42 42 42 44 51 62 73 82 85 83 81 82 83 83 86 90 94 98 100 100 98 95 94 97 100 101 102 103 104 103 102 101 99 100 98 96 95 94 97 100 101 101 99 96 95 95 95 95 95 94 92 89 86 84 81 78 74 70 66 63 60 59 59 59 60 60 60 61
24 21 18 18 18 18 17 17 18 19 20 21 22 22 23 22 22 22 23 24 20 14 16 23 29 34 36 35 34 35 38 40 42 45 48 53 63 74 81 81 82 82 80 81 83 85 87 90 94 95 93 91 92 92 93 96 99 103 104 104 103 101 102 103 103 102 99 98 98 100 101 101 99 98 98 99 100 100 100 99 97 94 89 86 83 81 78 74 71 68 66 64 62 62 61 60 58
22 20 18 18 19 20 20 19 19 18 18 18 18 19 19 19 19 21 20 17 14 15 23 29 31 33 33 31 30 31 35 38 40 42 43 45 47 54 63 73 82 85 82 79 78 78 79 81 83 84 86 87 89 91 92 94 97 100 104 106 107 105 104 102 101 102 103 104 103 102 101 100 101 100 100 100 99 100 101 102 102 101 97 94 91 88 86 85 84 82 81 79 77 74 71 68 65
21 21 21 21 21 21 20 18 17 15 15 14 15 16 17 16 18 20 17 13 16 23 28 30 30 28 27 27 28 30 32 34 37 38 39 42 43 45 49 55 64 70 76 82 80 76 75 78 81 83 85 86 87 88 89 92 95 98 102 105 108 109 108 106 103 99 99 100 101 102 103 104 104 104 105 104 102 100 100 100 100 101 101 100 98 97 95 92 91 90 89 89 89 89 89 86 83
23 24 24 22 20 19 17 15 14 14 13 13 15 16 16 14 16 20 18 18 24 27 26 25 25 25 23 23 25 28 29 31 33 35 36 38 41 42 44 46 48 51 58 68 73 78 82 84 85 87 88 91 92 88 86 89 91 92 94 94 96 100 102 104 104 101 100 99 98 99 99 102 103 104 106 107 108 106 104 102 101 100 100 100 100 101 102 99 96 92 89 86 85 85 86 86 86
26 26 24 21 19 16 14 13 13 13 13 14 16 17 15 13 17 22 22 24 26 24 23 23 22 22 21 20 22 23 25 27 28 30 33 36 38 39 40 41 43 46 47 49 53 61 70 76 83 88 91 93 94 89 86 90 94 94 94 91 89 88 89 92 95 96 98 101 102 102 100 100 103 104 103 105 107 108 108 108 106 105 104 103 102 102 103 103 101 99 97 95 90 84 79 75 74
27 25 22 19 17 15 13 13 12 12 13 14 16 17 14 13 18 24 24 24 24 23 21 21 20 20 20 20 21 21 22 22 23 25 27 30 32 35 37 39 41 43 44 45 46 47 48 53 61 70 77 84 89 88 86 89 94 98 99 99 97 93 89 87 88 89 91 94 97 100 101 101 105 106 105 102 102 103 104 106 108 107 105 103 102 101 101 101 100 100 101 102 101 96 92 88 83
25 22 19 17 17 15 14 14 13 12 13 14 18 18 12 13 19 24 25 24 23 22 20 19 20 21 22 22 22 22 22 22 22 23 23 24 25 26 28 31 33 36 39 43 44 44 45 47 48 50 53 58 65 71 75 78 83 89 95 100 102 101 96 91 88 86 85 85 86 89 92 94 99 105 107 103 102 102 101 102 104 103 103 101 100 100 99 98 96 96 96 97 98 99 99 99 98
24 21 19 18 17 17 17 17 15 14 15 16 20 21 13 12 20 24 26 25 24 23 20 20 21 22 23 24 24 24 24 24 25 25 25 25 25 25 26 26 26 28 31 34 36 40 42 44 44 46 48 49 50 51 53 56 59 64 71 79 87 92 95 95 93 90 87 85 84 84 84 86 88 92 96 99 104 105 102 103 101 100 101 100 100 100 100 100 98 96 95 93 92 92 93 94 94
24 22 21 22 20 19 20 20 19 18 19 19 24 28 18 13 19 25 26 27 27 26 23 22 23 24 24 24 26 26 25 26 26 27 27 28 28 28 29 29 28 28 27 27 28 30 32 33 34 37 40 43 46 47 48 48 48 48 49 53 59 66 72 76 80 82 83 83 82 81 81 82 82 81 83 86 92 98 102 106 104 102 102 101 101 100 100 103 101 99 99 96 94 91 89 88 88
27 25 24 26 26 25 25 24 23 23 22 22 28 32 24 19 22 23 25 28 31 30 26 25 25 26 26 27 27 27 26 26 27 28 28 28 29 30 30 30 29 29 29 29 29 28 28 27 27 28 29 31 34 37 41 44 46 48 49 49 49 50 53 56 60 63 66 70 71 73 75 77 79 79 80 81 83 88 94 101 103 104 105 106 105 103 104 106 103 100 100 101 99 96 96 94 91
30 30 29 29 30 31 30 29 29 28 27 27 31 32 28 29 30 27 28 30 32 33 31 30 29 28 29 29 29 30 29 28 28 28 29 30 30 30 30 30 29 30 30 30 31 31 31 31 30 29 28 28 28 29 30 33 36 39 43 47 50 52 54 55 56 57 58 61 62 64 66 69 72 76 80 84 88 89 91 95 98 100 102 103 102 100 102 104 103 102 104 104 102 100 102 100 99
35 34 35 34 34 36 35 34 34 33 34 34 35 34 33 38 38 34 36 38 36 35 34 33 33 33 33 33 33 34 33 31 30 30 31 32 32 32 31 30 30 30 30 29 29 29 30 31 31 32 31 30 29 29 28 28 28 30 32 36 41 47 53 58 60 60 59 58 57 57 57 60 64 72 81 92 98 98 97 96 94 95 95 93 93 91 91 92 92 94 97 99 99 100 101 101 101
40 39 40 39 38 41 41 40 39 38 38 39 40 37 38 44 42 39 42 44 42 41 40 38 36 35 35 35 36 37 38 37 35 34 34 34 34 35 35 34 34 33 32 31 30 29 29 28 29 29 30 30 31 31 30 30 29 29 29 29 31 35 40 46 52 56 58 59 58 57 57 58 59 63 71 83 93 98 100 98 94 92 91 88 88 87 86 85 83 83 84 85 86 89 92 94 95
44 43 43 43 42 44 46 46 46 46 44 44 45 41 41 46 45 45 48 46 45 45 45 44 41 40 38 37 37 37 38 39 38 39 39 39 41 41 40 39 38 38 37 36 34 33 32 31 30 29 28 28 28 28 29 30 31 31 31 30 30 30 30 32 35 40 46 52 58 61 62 62 62 61 60 63 69 75 82 87 88 89 90 89 90 90 89 87 85 83 81 81 82 85 87 89 90
46 46 46 48 47 46 48 50 51 53 52 51 52 47 44 47 47 49 51 48 45 44 43 43 42 44 46 46 46 45 44 44 43 43 43 42 44 45 45 45 45 44 43 42 40 39 38 36 34 33 32 30 29 28 27 27 28 29 31 32 32 32 31 31 30 31 33 36 42 47 51 55 58 59 59 59 58 58 60 63 67 71 74 78 81 84 86 88 89 89 90 89 90 92 92 92 90
51 50 50 51 52 51 49 52 53 55 56 55 58 55 49 50 51 53 55 52 47 41 38 39 41 45 50 53 57 59 60 60 59 57 55 52 50 47 46 46 46 47 47 47 47 46 45 43 42 40 38 37 35 33 31 29 28 28 27 28 29 31 32 33 34 34 33 32 32 32 34 37 40 44 46 48 50 51 53 54 56 58 60 62 64 67 69 71 74 76 79 80 82 83 85 86 85
56 56 56 55 56 56 53 53 54 57 60 59 61 62 56 52 52 55 58 56 52 48 43 44 49 52 55 58 62 66 68 69 68 67 66 64 62 59 56 53 50 47 46 46 47 48 49 49 50 49 47 45 43 40 38 36 34 33 31 30 29 29 29 31 33 34 35 36 35 34 33 31 31 31 32 33 35 37 40 44 47 49 51 53 55 57 58 59 60 60 61 61 62 63 64 66 68
60 61 64 64 63 65 63 59 57 58 63 65 67 69 67 60 55 56 58 54 52 55 56 56 60 62 61 60 60 61 62 63 64 65 65 65 65 66 65 63 61 58 55 53 50 49 49 50 51 52 52 52 51 50 48 46 43 41 39 37 35 34 32 31 30 31 32 34 35 36 36 36 34 33 32 31 31 31 31 32 33 35 36 38 40 43 44 47 48 50 51 52 53 54 55 56 56
63 63 68 74 73 74 76 72 67 66 69 73 76 81 83 77 69 66 61 52 50 59 67 65 64 68 66 63 63 62 61 61 60 59 60 61 61 62 64 64 64 64 63 62 62 61 59 56 54 52 52 52 53 53 53 53 52 51 50 48 46 44 42 40 38 36 34 32 32 33 33 34 36 37 37 37 37 36 34 33 32 31 30 30 30 31 32 33 35 36 38 39 41 44 46 47 48
67 63 66 75 76 77 80 80 79 78 80 83 86 91 93 90 88 85 75 64 60 67 77 73 66 67 66 64 66 69 73 77 75 71 67 65 63 62 61 61 61 61 62 62 63 64 65 65 64 63 61 59 57 56 56 56 56 56 55 55 55 55 54 53 51 49 45 41 38 36 34 33 33 34 35 36 37 38 38 38 37 37 36 35 34 33 33 32 31 31 31 31 32 32 33 34 35
71 67 63 66 69 70 73 78 80 84 90 95 98 96 93 98 103 101 97 93 87 83 83 78 68 64 63 64 67 70 77 84 87 86 83 79 76 74 73 69 65 61 59 61 62 63 64 64 65 67 68 68 68 67 67 66 66 65 64 63 62 61 62 62 61 59 56 54 52 49 47 44 43 42 40 38 38 37 37 37 37 38 38 39 39 39 39 39 39 38 37 35 34 34 33 32 33
76 72 67 65 65 65 69 72 72 79 90 100 108 98 87 98 107 105 106 108 105 99 92 87 82 74 68 67 70 72 77 83 86 87 87 86 85 84 83 81 78 72 68 67 68 68 68 67 66 65 65 65 67 68 70 72 74 75 75 74 73 72 72 71 67 64 62 61 61 61 60 58 56 54 53 51 49 48 46 44 43 42 41 41 40 40 40 40 40 40 40 40 40 39 38 38 38
76 74 72 71 70 70 73 71 69 74 83 97 111 98 82 93 107 106 105 104 103 103 102 100 99 94 84 75 71 71 74 77 80 80 82 86 88 89 88 85 82 81 81 82 80 76 73 72 71 70 70 69 68 67 68 70 71 74 77 78 80 81 82 81 77 74 71 69 68 66 65 63 62 62 61 60 59 59 58 57 57 55 53 52 50 48 47 45 43 42 41 40 40 39 39 39 39
74 74 75 73 73 75 74 71 73 76 79 95 108 97 86 95 105 107 105 101 101 102 102 102 102 102 101 94 85 80 79 77 78 78 78 80 83 86 88 87 86 84 87 93 95 92 86 82 79 76 78 81 84 84 82 79 75 72 71 73 77 81 82 84 84 84 83 81 79 77 73 69 67 65 63 63 63 63 63 63 63 63 63 63 62 61 60 58 57 56 55 53 50 48 46 45 43
74 72 72 72 72 74 73 72 76 75 76 91 99 92 90 92 98 105 106 105 104 101 102 104 103 103 105 104 99 97 95 92 90 87 83 81 81 82 82 83 85 87 91 96 99 100 99 98 95 88 84 84 90 96 100 100 97 90 84 77 74 74 75 77 79 81 83 83 83 83 81 78 76 74 71 69 68 67 66 66 66 65 66 66 66 67 67 67 66 66 66 65 64 63 62 61 59
74 70 69 71 70 72 73 72 76 75 75 87 92 89 90 91 94 101 106 107 104 103 106 106 105 104 103 103 102 103 104 101 99 95 92 91 91 93 95 94 90 89 90 93 95 97 99 102 105 105 100 94 91 93 98 104 106 106 105 100 94 89 83 79 77 75 75 76 77 77 76 76 76 76 76 76 75 74 73 72 71 71 71 71 70 70 70 69 69 68 67 67 68 68 68 68 67
71 67 66 67 70 72 71 71 75 75 76 86 90 88 92 94 92 94 100 103 102 104 107 107 105 104 105 105 102 103 104 103 103 102 100 100 99 100 105 106 105 103 101 99 96 96 96 94 95 100 103 102 100 97 98 102 105 106 105 105 106 106 103 100 96 90 84 79 77 76 74 73 72 71 71 71 71 71 70 71 71 72 73 75 76 76 76 75 74 73 71 70 69 68 68 67 67
69 68 68 69 73 71 67 71 77 76 81 88 87 86 90 90 85 88 94 95 98 102 103 103 103 103 104 106 105 106 107 107 107 107 106 106 105 102 101 100 99 101 104 107 105 102 101 96 89 88 90 91 94 96 98 102 105 107 105 102 100 99 101 104 106 105 101 95 90 86 83 80 78 76 74 72 70 68 66 65 66 66 67 69 70 72 73 74 75 75 75 75 75 74 73 72 70
74 76 78 79 80 72 67 73 75 77 85 87 83 85 88 84 83 89 92 91 96 98 99 100 100 100 101 101 103 103 105 106 107 108 108 109 109 107 104 102 99 97 97 100 104 105 106 104 98 95 93 91 90 90 90 92 95 99 103 104 103 100 97 97 98 101 105 105 101 98 96 94 91 89 86 83 79 76 74 73 71 70 70 69 69 69 69 69 69 69 70 71 72 74 75 75 76
80 86 88 86 86 80 75 74 74 78 82 83 85 84 82 81 81 86 90 91 93 91 91 93 92 92 94 94 96 98 100 103 106 107 107 107 110 111 109 107 106 108 106 101 101 103 105 107 107 106 103 102 102 99 95 93 91 91 93 97 101 104 104 102 100 100 101 104 104 104 105 105 103 101 98 96 93 88 85 85 84 82 81 79 77 76 76 76 75 74 74 74 74 74 74 74 76
82 88 89 87 88 87 84 78 78 82 78 80 88 83 78 79 76 81 92 91 88 86 85 84 82 81 83 85 88 91 93 95 100 105 104 101 102 106 111 107 102 103 106 105 101 99 99 100 105 108 105 103 105 106 105 103 99 96 93 93 94 96 100 105 106 104 101 99 98 99 102 105 107 106 105 104 103 100 97 94 93 93 93 91 90 88 88 88 88 87 87 87 87 87 85 83 83
82 82 85 87 86 88 89 85 85 87 78 78 86 83 81 81 75 83 95 89 83 82 77 75 74 73 73 74 75 76 78 78 80 86 90 91 89 89 95 96 92 89 88 90 91 89 87 86 89 96 99 99 100 102 104 104 103 103 100 97 95 93 95 99 102 103 102 99 96 93 93 96 100 103 104 104 103 104 105 102 99 100 101 100 101 100 99 99 100 100 102 103 103 102 98 95 94
88 85 88 91 88 86 89 88 90 91 82 78 83 85 86 87 86 93 98 92 85 78 71 68 66 64 63 62 60 60 60 61 61 63 67 71 73 73 75 77 79 79 78 78 79 78 79 78 78 81 85 89 92 96 100 102 103 104 104 103 102 100 98 98 98 99 99 99 100 99 98 96 97 98 99 100 101 102 105 106 103 100 99 98 99 101 102 103 103 104 107 110 112 112 109 106 104
93 94 94 94 93 91 90 90 91 91 85 78 79 82 85 88 97 102 97 90 83 78 76 73 68 65 61 58 58 57 56 56 57 59 61 63 66 69 73 75 77 80 81 80 78 77 75 74 74 76 77 79 81 82 86 90 94 98 100 103 106 107 108 107 105 104 101 98 97 99 101 102 99 97 94 94 95 96 99 102 102 100 99 96 95 95 96 98 99 100 103 106 109 110 108 107 107
91 94 93 92 95 96 94 92 94 95 88 78 69 66 69 78 90 92 81 73 72 71 72 71 68 67 66 67 70 72 73 71 68 66 65 64 63 62 63 65 65 66 67 66 64 62 58 54 51 51 53 55 56 57 56 56 58 61 66 71 77 83 89 93 97 102 105 104 102 101 102 102 100 96 92 90 89 89 91 92 91 91 91 90 91 91 92 92 93 93 95 97 100 103 104 104 105
91 94 97 100 100 99 94 88 93 97 92 85 68 49 52 69 77 71 59 55 56 55 56 60 63 65 68 72 76 76 76 75 70 64 58 54 51 48 45 43 42 41 41 41 40 39 37 35 32 29 28 29 30 32 33 33 33 32 33 35 39 43 48 53 58 66 74 81 88 94 97 103 107 103 100 98 94 90 90 89 85 81 78 76 77 79 81 83 85 87 88 88 89 91 95 98 101
93 98 103 104 101 100 95 86 85 88 92 98 80 50 49 66 65 54 47 47 50 52 58 64 68 69 71 71 70 66 62 57 52 47 43 40 37 35 33 30 29 29 28 29 29 30 30 30 29 28 27 25 25 24 25 27 28 28 28 28 28 28 29 31 32 35 39 43 50 57 64 75 87 94 100 107 106 102 101 99 95 90 84 79 75 73 71 70 71 74 77 79 80 80 82 86 89
Wind_Speed
62 64 66 68 70 71 73 75 75 75 76 75 79 80 80 79 76 73 69 64 58 54 50 45 43 42 41 40 41 41 41 42 41 40 39 40 40 39 38 39 39 37 37 37 38 39 39 42 45 50 54 57 61 64 66 67 69 69 68 68 68 70 73 76 77 78 80 81 82 83 84 84 83 83 82 81 81 81 81 81 80 80 81 81 80 79 79 78 77 76 75 75 74 74 74 74 74
65 67 69 71 72 74 76 77 76 77 77 78 81 81 80 78 74 71 66 61 56 52 48 44 42 42 41 40 41 41 42 42 41 41 40 40 40 39 38 39 39 38 36 37 37 38 38 40 42 47 52 56 60 63 66 68 70 71 70 69 68 69 70 73 75 76 78 80 82 83 84 84 84 84 83 82 81 82 82 82 82 81 81 81 81 81 80 79 78 78 77 76 76 76 75 75 75
68 70 72 73 75 76 77 78 78 78 80 81 82 82 79 76 72 68 64 59 54 50 47 45 42 42 41 41 41 42 43 43 41 41 40 40 40 40 39 39 39 38 37 37 37 37 38 39 41 44 49 54 57 61 64 67 69 70 71 71 70 69 69 70 72 74 76 77 79 81 83 83 84 85 84 84 83 83 83 83 83 82 82 82 82 82 82 81 80 79 79 79 79 79 78 77 77
71 73 75 75 76 77 78 79 80 81 82 82 81 82 78 73 70 65 61 57 52 49 46 44 43 42 41 42 42 43 44 42 41 42 41 41 41 40 40 39 39 39 38 38 38 37 38 39 41 43 46 50 54 58 62 66 68 69 70 71 72 71 70 70 71 72 74 76 77 78 80 82 83 83 84 84 84 85 85 85 85 84 84 85 85 84 83 83 82 82 83 83 82 82 81 80 80
74 75 77 77 77 78 79 81 83 84 84 82 80 79 76 71 67 63 58 54 51 48 45 44 43 43 42 43 43 44 45 43 43 42 41 41 41 41 41 41 40 40 40 39 39 39 39 40 42 43 44 48 52 56 60 63 67 69 70 71 72 72 72 72 72 72 72 74 76 77 78 79 81 82 82 83 84 84 85 85 85 85 85 86 86 86 85 84 84 84 84 84 84 84 83 83 82
76 77 78 78 79 80 82 84 85 85 85 81 78 76 73 69 65 61 57 53 49 47 45 44 43 43 43 45 44 44 45 44 44 43 42 42 42 42 42 42 40 40 41 41 41 41 41 42 43 44 45 47 50 53 57 60 64 66 68 69 71 72 72 73 73 73 72 72 74 75 76 77 78 79 80 81 82 83 84 84 85 84 84 85 86 85 84 84 84 84 84 83 83 83 83 83 83
77 78 79 80 81 83 85 86 86 84 83 80 76 74 70 66 62 59 55 51 48 46 45 43 43 44 45 45 45 45 45 45 45 45 44 43 44 44 43 42 41 42 42 42 43 44 44 44 45 46 47 48 49 52 55 57 59 61 64 66 68 69 71 72 73 74 74 73 73 73 73 75 76 77 78 79 80 81 82 83 83 83 83 84 85 85 85 86 85 84 84 83 83 83 84 84 84
79 79 81 82 83 85 86 86 85 82 80 77 74 70 66 63 61 58 54 51 48 46 44 43 44 45 46 46 46 46 46 46 46 46 45 45 45 45 44 44 43 43 43 44 45 46 47 47 48 48 49 49 49 51 54 56 57 59 60 62 64 66 67 68 69 71 73 74 73 72 72 71 72 74 76 77 78 79 80 81 81 81 82 83 83 84 85 86 86 85 85 84 85 85 85 85 85
80 81 83 84 85 86 86 85 83 80 77 75 72 67 64 61 58 56 53 51 49 47 45 44 44 45 46 46 47 47 46 47 47 47 46 46 46 46 46 45 45 45 45 46 47 48 49 49 50 51 50 51 52 52 53 55 56 58 59 61 62 63 64 65 65 66 67 69 70 71 71 71 71 71 72 73 75 77 78 79 80 80 81 82 82 82 83 85 86 86 86 86 86 86 86 86 86
82 83 84 85 86 85 84 82 80 77 74 72 70 66 64 61 57 55 52 51 50 48 47 45 45 46 47 47 47 46 46 47 48 48 48 47 48 48 48 47 47 47 47 48 48 49 50 51 52 53 52 53 54 54 54 54 55 57 59 61 62 63 64 64 65 66 66 66 67 68 70 71 72 71 71 71 71 73 75 77 78 78 80 81 81 81 82 83 84 85 85 85 85 86 86 86 86
84 85 86 85 85 84 81 79 77 74 71 70 67 63 61 60 57 55 53 52 51 50 49 47 47 48 48 49 48 47 47 47 48 49 49 49 49 50 50 49 49 49 49 49 49 50 52 53 53 53 54 55 55 56 56 55 56 56 58 60 61 62 64 65 67 67 68 69 69 69 70 71 72 72 72 72 71 71 72 74 74 75 76 78 79 80 81 82 83 84 84 85 85 85 85 85 86
86 86 86 84 83 81 78 76 74 71 68 67 64 61 59 58 56 55 54 54 53 52 51 49 49 49 49 50 49 47 47 48 49 50 51 50 50 51 51 51 52 52 51 51 51 52 53 54 54 54 55 56 57 57 58 58 58 58 59 59 60 61 63 64 66 67 69 70 71 70 71 72 73 74 74 74 73 73 73 73 73 74 75 76 77 77 79 80 81 82 83 84 85 85 85 85 85
85 85 84 81 80 78 75 72 70 67 66 64 61 59 59 58 57 55 55 55 55 54 53 52 51 51 51 51 50 49 48 49 49 50 51 51 52 52 53 54 54 54 54 54 54 54 55 56 56 56 57 58 59 59 59 60 61 61 62 61 61 61 63 64 65 67 68 69 69 69 71 72 73 75 76 76 75 75 75 76 76 75 76 76 76 77 78 79 80 81 82 83 84 84 85 85 85
83 82 80 78 76 75 73 70 67 64 64 63 59 59 59 58 58 57 56 56 56 55 55 55 53 53 53 52 51 50 50 51 50 51 52 52 53 54 55 56 56 56 57 57 57 56 57 58 58 57 58 59 60 61 61 62 63 64 65 64 64 64 65 65 67 68 68 69 69 69 70 70 72 74 76 76 76 76 76 77 78 78 78 78 78 78 78 78 79 80 80 81 82 83 84 85 85
80 78 77 74 74 73 70 66 64 62 62 62 59 59 59 59 59 58 58 57 57 57 56 56 56 55 55 54 52 52 52 54 53 53 54 54 55 56 57 57 58 58 59 59 59 59 59 60 60 59 59 60 61 62 62 63 64 65 66 66 67 67 67 68 69 70 70 70 70 70 70 70 71 72 74 75 75 75 76 77 78 78 79 79 79 78 79 79 79 80 80 81 81 82 83 84 85
76 75 73 72 71 70 67 64 62 61 62 61 60 60 59 59 59 59 59 59 59 59 58 58 58 57 56 55 54 53 54 56 57 57 57 56 56 57 58 59 60 60 61 61 61 61 61 62 62 62 62 62 62 63 64 64 65 66 67 68 68 69 69 70 72 72 71 72 72 72 72 72 72 73 74 74 75 75 76 76 77 78 78 79 79 79 79 79 79 80 80 80 81 82 82 83 84
72 71 70 70 68 66 64 63 62 62 62 62 61 61 60 60 59 59 59 59 60 60 60 60 58 57 56 56 56 56 56 58 59 59 59 59 59 59 59 60 61 62 62 62 62 62 63 64 64 64 64 65 65 65 65 66 67 68 68 68 69 70 71 72 73 73 72 73 74 74 74 75 75 75 76 76 76 76 77 77 77 78 78 79 79 80 80 80 80 80 80 80 80 80 81 81 82
69 68 67 67 65 64 63 63 62 62 63 63 62 62 61 61 60 59 59 60 60 60 62 61 58 57 56 56 57 58 60 61 61 61 61 61 61 61 61 61 62 63 64 64 64 64 64 65 66 67 67 67 68 68 68 68 69 70 70 69 70 71 71 73 74 73 73 74 75 75 76 76 76 77 77 78 78 79 79 79 79 79 80 80 80 80 80 80 80 81 81 81 80 80 80 80 81
66 66 65 65 63 63 64 63 62 62 63 63 62 62 62 61 60 60 60 60 60 62 63 59 55 56 56 56 57 59 61 62 63 64 63 63 63 63 63 63 64 64 65 65 65 65 66 67 68 69 69 69 69 70 70 70 71 72 71 71 71 72 73 74 74 74 74 75 76 76 77 77 77 78 78 79 79 80 80 81 81 81 82 82 82 82 81 81 81 81 81 82 82 81 81 81 81
64 64 64 64 63 64 64 63 63 62 62 62 62 62 62 62 61 60 60 61 63 65 63 57 54 56 56 56 58 60 61 62 64 65 65 66 65 65 65 65 66 66 67 67 67 68 69 69 70 70 70 70 70 71 71 71 72 73 73 73 73 74 74 75 75 75 75 76 77 78 78 79 79 79 80 80 80 81 81 82 83 83 83 83 83 83 83 83 83 83 83 83 83 83 83 83 83
63 64 64 64 64 64 64 63 62 62 61 61 62 62 62 63 62 61 61 62 66 66 61 57 56 57 57 58 59 60 61 61 62 64 66 67 68 68 68 67 67 68 68 69 70 71 71 71 72 72 72 72 72 72 73 73 73 74 74 75 75 75 76 76 76 76 76 77 78 79 80 80 81 81 81 82 82 82 83 83 84 84 84 85 85 85 85 85 85 85 85 86 85 86 86 86 86
63 64 63 63 63 64 64 62 61 61 61 61 62 62 63 63 62 62 61 63 65 63 58 57 57 58 60 60 60 60 60 61 62 63 66 67 69 70 71 70 69 69 70 71 73 73 74 74 74 74 73 73 74 74 75 74 74 75 75 75 76 76 77 78 77 77 77 78 78 80 80 81 81 82 83 83 84 84 85 86 86 87 87 87 87 87 87 87 88 88 88 88 88 88 88 88 88
62 64 63 62 62 62 63 62 61 61 60 60 60 61 62 61 60 61 62 63 61 57 56 56 57 58 60 60 60 59 60 61 62 63 65 66 68 69 71 72 73 73 72 73 74 75 75 76 76 75 75 75 75 76 77 76 76 76 77 77 78 78 79 79 79 79 79 79 79 80 80 81 81 82 83 84 85 86 87 88 89 89 90 90 90 90 90 90 90 91 91 91 91 91 91 91 90
61 62 62 61 61 61 61 62 61 60 59 58 58 59 60 58 56 58 61 59 54 53 54 56 57 58 58 58 58 58 59 60 62 63 63 65 66 68 69 71 74 75 75 76 77 76 76 77 77 77 78 78 79 79 79 79 79 79 80 80 81 81 81 81 81 81 80 80 80 81 81 81 82 83 83 84 85 86 87 88 89 90 90 91 92 92 92 93 93 94 94 94 94 94 94 94 94
60 60 61 61 60 60 59 59 59 58 57 55 55 57 57 55 52 55 57 54 51 53 54 55 56 57 58 57 56 57 58 59 60 61 62 63 65 67 69 70 72 73 75 77 78 78 79 79 79 79 80 81 83 83 82 81 82 82 83 84 84 84 83 83 83 82 82 82 82 82 82 83 83 84 84 85 85 86 87 87 88 89 89 90 91 91 92 92 93 94 95 95 96 96 96 96 96
59 59 59 59 59 58 57 56 55 54 54 52 53 55 55 51 48 50 52 50 52 53 53 53 53 55 55 54 54 54 55 56 57 58 59 62 64 65 67 68 70 72 74 75 76 78 80 80 81 82 83 83 85 85 84 85 85 86 86 87 88 87 87 86 86 85 85 85 85 85 84 84 85 86 86 86 87 88 88 89 89 89 90 90 90 90 90 90 91 91 92 93 94 95 96 96 97
57 57 57 56 56 55 53 53 52 51 50 49 50 53 51 45 43 46 48 48 50 51 50 50 49 51 51 50 50 50 51 52 52 54 56 59 61 63 64 66 67 70 72 73 75 76 77 78 80 82 83 84 86 87 87 87 87 88 89 90 91 92 92 91 91 91 90 89 89 88 87 87 87 87 88 88 89 89 90 90 91 91 91 91 91 91 91 91 91 91 91 91 92 92 93 94 95
55 55 54 53 52 51 50 50 49 48 47 46 47 52 48 40 40 43 45 47 48 49 48 46 46 47 47 47 48 48 49 49 49 51 53 55 57 58 61 63 65 67 68 71 73 73 74 76 78 80 81 82 84 86 88 88 89 90 91 92 93 94 94 94 95 94 94 94 93 92 91 91 90 91 91 91 91 91 92 92 93 93 93 93 93 93 93 93 93 93 93 93 92 92 92 93 93
53 52 51 51 49 48 47 47 47 46 45 44 45 51 47 38 38 41 43 45 47 48 46 44 44 45 45 46 46 47 47 46 47 48 50 51 52 54 56 59 60 62 65 67 69 71 73 75 76 77 78 80 81 83 85 86 87 89 90 92 93 95 96 96 97 97 97 96 96 96 95 95 94 95 95 95 95 94 94 94 94 94 94 94 94 94 94 95 95 95 95 95 95 95 94 94 94
51 50 49 49 48 46 45 45 45 43 43 42 42 48 48 39 37 40 41 44 46 47 45 43 44 44 44 44 45 46 45 45 45 46 47 48 49 50 52 55 56 58 60 63 65 68 70 72 73 74 75 77 79 81 82 83 84 85 86 87 89 91 94 95 97 98 98 99 99 99 98 98 98 98 98 98 98 98 97 97 97 97 97 96 96 96 97 97 97 97 97 97 97 97 97 97 97
49 49 47 47 47 46 44 44 43 42 41 40 40 45 46 41 38 39 40 42 45 47 45 44 44 44 44 44 45 46 45 44 45 45 45 45 46 48 50 53 54 55 57 59 61 63 65 67 69 70 71 73 75 77 79 81 82 83 84 84 85 87 89 91 93 95 96 98 99 99 100 100 100 100 100 100 100 100 100 101 101 101 100 100 100 100 100 100 100 100 99 99 99 99 99 99 99
47 47 46 45 45 45 44 43 42 42 41 40 40 43 43 42 41 40 40 42 44 46 46 45 45 45 45 45 45 46 46 45 45 45 44 44 46 47 49 50 51 52 54 56 57 59 61 63 65 66 68 69 72 74 76 77 79 80 81 83 84 85 87 89 91 92 94 95 96 97 98 99 100 100 100 100 100 100 102 103 104 104 104 104 104 104 104 103 103 103 102 102 102 102 101 101 101
46 45 45 44 43 44 44 43 42 42 41 40 40 41 40 41 42 40 40 42 43 44 45 45 45 46 46 46 46 47 48 47 46 45 45 46 47 48 48 49 49 50 52 54 55 57 58 60 62 64 65 67 68 70 71 73 74 76 78 80 82 84 86 89 91 93 94 95 95 95 96 96 97 98 100 100 101 102 103 104 104 105 105 106 106 106 106 107 107 106 106 106 105 104 104 103 103
45 44 44 44 42 42 43 43 42 42 41 41 41 41 38 40 42 39 39 42 42 42 43 44 44 45 46 46 47 47 48 49 48 47 47 47 48 49 49 50 50 50 51 53 53 55 56 57 59 61 63 64 66 67 68 69 70 72 74 76 79 82 84 87 90 92 93 94 94 94 95 95 96 98 99 101 103 104 105 105 105 105 105 106 106 106 107 108 108 109 109 108 108 107 106 106 106
45 44 44 44 42 41 42 42 42 42 41 41 43 42 38 40 41 40 40 41 41 41 42 43 43 43 44 45 46 47 48 49 49 49 49 49 49 50 50 51 51 51 52 53 53 54 55 56 57 59 60 61 62 63 64 66 68 69 71 73 75 77 80 84 86 88 90 92 94 96 96 97 98 99 99 101 102 104 105 106 106 106 106 106 107 107 108 108 109 109 109 109 109 109 109 109 110
46 45 44 44 43 41 40 41 41 41 42 41 43 44 39 39 41 41 42 42 41 41 41 42 42 42 43 43 43 44 45 46 47 48 48 49 49 50 51 51 52 52 53 53 53 54 55 56 56 58 59 60 60 60 61 63 64 66 68 70 72 74 77 79 81 83 86 89 92 94 96 97 99 99 100 101 101 102 102 103 104 105 106 106 107 108 109 110 110 110 110 110 111 111 112 112 113
47 47 46 45 45 44 41 40 40 40 42 42 44 47 43 39 40 41 43 43 42 42 41 40 41 40 41 41 42 43 44 44 44 45 46 47 48 49 50 51 52 53 54 54 54 55 55 56 57 58 60 59 60 60 61 61 62 63 64 66 68 71 73 75 77 80 82 85 87 89 91 94 96 97 99 99 100 101 101 102 102 104 105 105 107 108 109 110 110 111 112 112 113 114 114 115 115
49 49 48 47 46 47 45 42 41 40 42 43 44 49 50 45 41 40 43 44 43 43 41 40 40 40 39 40 41 42 43 44 45 45 46 47 48 49 50 50 51 52 53 54 55 56 56 57 58 59 60 60 61 62 62 61 62 62 62 63 65 67 68 71 74 77 80 82 84 86 88 90 91 93 94 95 96 97 99 100 102 103 104 105 106 107 108 109 110 111 111 112 113 113 114 114 115
51 50 50 50 49 49 49 47 44 42 43 44 45 49 54 54 50 45 45 45 43 43 42 40 38 39 39 40 41 43 44 45 46 46 47 48 49 50 51 51 52 52 53 54 54 55 57 58 59 60 61 62 63 64 64 64 64 63 63 63 64 65 66 68 70 72 75 77 80 83 85 86 88 88 89 90 92 93 95 96 98 100 101 102 104 105 106 107 109 110 110 111 112 112 113 113 114
53 52 51 51 51 50 50 50 49 47 45 46 46 48 54 58 58 54 51 48 45 44 45 43 42 42 42 42 43 45 47 48 48 47 47 48 49 50 51 52 53 53 54 54 54 55 56 58 59 60 61 62 64 65 66 66 66 66 66 66 66 67 67 68 69 70 72 74 76 77 79 81 82 83 85 86 88 90 91 93 94 95 96 98 99 100 101 102 104 105 106 107 108 109 110 111 112
55 54 51 51 51 50 50 50 50 50 49 48 47 46 50 57 62 63 61 56 51 48 48 46 46 47 47 46 45 45 47 49 50 50 50 50 50 50 50 51 51 52 53 53 54 56 57 58 59 59 60 62 63 65 66 66 67 67 68 68 69 70 70 71 72 73 74 75 75 76 77 77 77 78 80 81 83 85 87 88 90 91 92 93 94 95 96 97 99 100 101 102 103 103 104 106 107
56 56 54 52 52 51 51 50 50 50 50 50 49 46 44 51 61 64 65 65 61 57 56 52 50 51 51 50 49 48 49 49 50 51 52 52 52 52 52 51 51 51 51 51 53 54 55 57 58 59 61 62 63 64 65 65 66 67 68 69 70 71 71 73 75 76 77 77 77 77 78 78 78 78 79 79 80 81 82 84 85 86 87 89 90 91 92 93 94 95 97 98 98 99 100 100 101
57 58 58 56 55 53 52 52 50 49 48 49 52 50 44 46 55 60 61 65 66 64 64 62 60 58 56 54 54 53 53 53 53 53 53 53 54 55 54 53 53 53 53 52 53 53 53 54 56 58 60 62 64 65 66 66 67 68 68 69 70 71 71 74 76 77 78 78 79 80 80 81 81 81 81 81 82 82 82 83 83 84 84 85 86 87 88 89 91 92 93 94 95 96 97 96 97
58 59 59 59 58 56 55 54 52 50 48 48 53 55 48 44 50 54 55 59 63 65 66 67 67 66 63 62 60 59 59 59 58 58 58 57 57 58 58 57 56 56 57 56 56 55 55 54 55 56 58 60 62 64 65 66 68 69 70 71 72 73 73 75 76 77 77 78 79 80 82 83 83 84 84 85 85 85 85 85 86 86 86 86 87 87 88 89 89 90 91 92 92 93 94 94 94
59 60 60 60 59 58 57 56 55 53 48 48 54 58 53 47 47 50 53 55 59 63 65 66 68 69 69 68 67 66 65 65 64 64 64 63 62 61 61 61 60 60 60 60 60 59 58 57 57 58 59 61 62 63 64 65 67 69 70 72 74 76 77 77 78 78 78 79 80 81 82 83 84 84 85 86 86 87 87 88 88 88 89 89 90 90 90 91 91 91 92 92 93 93 93 93 93
62 62 62 61 60 59 59 57 56 55 51 50 55 58 56 52 50 51 53 55 58 62 64 66 67 69 70 71 70 70 71 71 70 70 69 69 68 67 66 65 64 64 63 64 63 63 63 62 61 62 63 64 64 65 65 66 67 68 70 72 74 76 77 78 79 79 80 81 82 83 84 84 85 85 85 86 86 87 88 88 88 89 89 90 90 91 91 92 93 94 94 94 95 95 95 96 96
65 65 65 64 63 61 60 59 59 58 55 55 57 58 58 56 53 54 55 56 59 61 64 66 66 67 69 70 71 72 74 75 75 74 74 73 73 73 73 72 70 69 68 68 67 67 67 67 66 65 66 67 68 68 68 68 68 69 70 72 73 75 76 77 78 78 80 81 82 83 84 85 85 86 87 87 88 88 89 89 89 89 89 90 90 90 91 92 93 94 94 95 95 96 97 98 98
68 68 68 67 66 65 63 61 62 61 59 58 59 59 60 59 57 57 58 59 60 61 63 65 67 68 69 70 72 73 75 76 77 77 77 77 77 76 77 78 77 75 73 72 71 71 71 71 70 69 69 70 71 72 72 72 72 72 73 74 75 77 77 78 78 79 80 80 81 82 83 84 85 86 87 88 89 90 90 90 90 90 90 91 91 91 92 92 93 94 94 94 95 95 96 97 98
70 70 71 71 70 70 67 64 65 65 62 62 61 61 62 62 61 61 60 61 62 63 64 66 67 68 69 71 72 73 75 76 77 78 78 79 80 80 80 82 82 82 80 77 75 75 75 75 75 74 73 73 73 74 75 76 77 77 78 79 79 80 80 81 81 82 83 83 83 84 84 85 86 86 87 88 89 91 91 91 91 92 92 92 93 93 93 94 94 95 95 95 96 96 97 98 98
72 72 73 74 75 76 72 69 69 68 66 65 63 65 66 65 64 64 64 65 65 67 67 67 68 69 69 70 72 73 74 75 76 77 78 79 81 82 83 83 84 86 86 85 82 80 79 80 80 79 79 78 77 77 79 80 81 82 83 83 84 85 85 84 84 85 86 86 86 87 87 87 88 88 89 90 91 91 91 91 92 92 93 93 94 95 95 96 96 96 97 97 97 98 99 99 99
73 74 75 75 78 80 78 76 75 73 71 67 66 69 70 69 68 68 68 69 70 71 71 71 71 72 72 72 73 74 75 76 77 78 79 80 81 83 85 86 86 87 89 90 89 88 86 85 85 85 85 84 84 83 83 84 85 86 87 87 88 89 89 89 89 89 89 90 89 89 90 91 91 92 92 93 93 94 93 93 93 94 94 95 95 95 96 96 97 97 98 98 99 100 101 101 101
74 75 76 77 78 81 82 81 80 80 77 71 70 72 73 73 72 73 74 74 75 75 75 76 76 75 75 75 76 76 76 77 78 79 81 81 82 83 86 88 89 89 90 92 93 93 92 92 91 91 90 90 90 89 89 89 89 90 91 91 92 92 93 93 94 94 94 94 94 93 93 94 94 95 96 96 97 97 97 96 96 96 96 97 97 97 97 98 98 98 98 98 99 100 102 102 103
76 75 76 78 79 81 84 85 83 84 83 77 74 75 76 76 76 78 79 79 79 79 79 79 79 78 78 78 77 78 78 78 78 79 81 82 83 83 85 87 89 90 91 92 93 94 95 95 95 94 94 93 93 93 93 92 93 94 94 95 95 96 96 97 97 98 98 98 99 98 98 98 98 98 99 99 100 100 101 100 100 100 100 101 101 101 101 101 101 101 100 100 101 102 103 103 104
78 77 78 80 81 83 85 86 86 86 86 83 79 79 80 81 81 83 84 84 84 83 82 81 80 80 80 79 79 79 79 79 79 79 80 81 82 84 84 86 87 89 90 92 93 94 95 96 96 96 96 96 96 95 95 95 95 96 96 97 98 98 99 100 100 101 102 102 102 102 102 102 103 102 102 103 103 103 104 104 105 105 105 105 105 105 106 106 105 105 104 104 104 105 106 105 106
78 79 80 82 83 84 86 88 89 90 90 87 84 82 82 83 85 87 87 87 86 85 85 84 83 83 83 82 83 83 82 82 82 82 82 83 84 85 86 87 88 89 91 92 93 95 96 97 97 98 98 99 99 99 98 98 97 97 97 98 99 100 101 102 102 103 104 105 106 106 106 107 107 107 107 107 107 107 108 108 109 109 109 109 109 109 110 110 110 109 109 108 109 110 110 109 109
80 81 82 84 85 86 87 89 91 93 94 92 88 84 82 84 88 89 88 87 86 85 85 85 85 85 85 86 86 87 87 87 87 87 88 88 88 89 89 90 91 92 93 94 94 95 96 97 98 99 99 99 100 101 101 101 100 99 99 99 100 101 102 103 104 105 106 107 108 108 109 110 111 112 112 112 112 112 113 113 113 114 114 114 114 114 114 114 114 113 113 113 113 113 113 113 113
81 83 84 86 87 89 90 90 92 95 97 96 94 89 84 86 90 90 88 87 86 85 85 86 87 87 88 89 90 90 91 92 92 92 92 92 92 92 92 92 92 93 93 94 95 95 96 96 97 97 98 98 99 99 100 100 100 100 100 100 100 101 102 103 104 105 106 107 108 109 110 111 113 114 115 116 116 116 117 118 118 119 118 118 118 118 118 118 118 118 118 117 117 117 117 117 117
84 85 87 88 90 91 93 92 92 94 97 99 100 94 88 89 92 91 89 89 88 88 89 89 91 91 92 93 94 94 94 94 93 93 93 93 93 93 93 93 92 93 93 93 94 94 95 95 96 96 97 97 97 98 98 99 99 99 99 100 100 100 101 102 103 104 105 107 108 109 110 111 112 114 115 117 118 120 120 121 122 123 123 122 122 122 122 122 121 121 121 121 121 121 121 121 120
Wind_Direction
293 295 296 297 297 298 299 300 302 302 302 302 301 302 303 303 303 303 303 302 299 297 293 288 283 279 275 272 270 269 267 266 266 264 262 263 264 265 266 265 262 259 258 258 257 256 254 253 249 244 239 235 234 234 235 236 236 237 237 238 239 239 238 237 236 236 236 237 237 236 235 235 235 235 236 236 236 237 238 238 238 239 240 242 243 244 245 245 246 246 247 247 248 248 249 249 249
293 294 295 296 297 298 299 300 301 301 301 301 301 302 302 302 303 302 301 300 298 295 291 286 281 277 274 271 269 268 266 265 264 263 263 262 263 263 263 264 263 261 259 259 259 257 255 254 251 247 242 238 236 235 236 236 237 238 238 239 240 240 240 239 238 238 237 238 238 238 238 237 236 236 236 236 236 236 237 238 239 240 241 242 243 244 245 245 246 247 247 248 249 249 249 250 250
293 294 295 296 297 298 298 299 300 300 300 300 300 301 301 302 302 301 300 298 296 293 289 285 280 276 273 270 268 266 265 264 263 262 261 261 261 261 262 263 263 262 260 259 259 257 256 254 251 248 244 242 239 237 236 237 238 239 240 240 240 240 241 241 240 240 239 239 239 239 239 239 239 238 237 237 237 237 237 238 239 240 241 242 243 244 244 245 246 247 248 249 250 250 250 250 251
293 294 295 296 297 297 298 298 299 299 299 299 299 300 300 301 300 300 299 297 294 291 287 284 279 274 270 268 266 264 263 263 262 261 260 260 260 260 260 261 262 261 259 258 258 257 256 254 251 249 246 243 241 239 238 238 239 240 241 241 241 241 241 242 242 242 241 241 240 240 241 241 240 240 240 239 239 239 239 239 240 241 242 243 244 244 245 246 247 248 249 250 250 250 251 251 251
292 294 295 296 296 297 298 298 298 298 298 298 298 299 300 300 299 298 296 295 292 290 286 283 278 273 269 265 263 262 262 262 261 259 258 258 258 258 259 258 259 260 260 258 257 257 256 254 252 249 247 244 241 240 239 239 239 240 241 242 242 242 241 242 243 243 243 243 242 242 242 242 242 242 242 241 241 241 242 242 242 242 243 244 245 245 246 247 248 249 249 249 250 250 250 251 251
292 293 294 295 296 297 297 297 297 298 298 298 298 298 299 299 298 296 295 293 290 288 285 282 277 272 268 264 262 261 261 261 259 258 256 256 257 257 257 257 258 259 259 258 258 257 257 255 252 250 247 246 243 241 240 240 240 241 241 242 243 243 242 241 242 242 243 243 244 243 243 244 244 244 244 244 243 243 243 244 244 243 244 244 245 246 247 247 248 248 248 248 249 249 250 250 251
292 293 294 295 296 296 296 297 297 297 297 298 298 298 299 298 296 295 293 291 288 286 283 280 277 272 268 265 263 261 260 259 258 257 255 255 255 256 256 256 257 257 258 258 257 257 256 255 253 250 248 247 246 243 242 241 241 242 242 243 243 244 244 243 242 242 242 243 243 244 244 244 245 245 245 245 245 245 245 245 245 245 245 245 246 246 247 247 248 248 248 249 249 249 250 250 251
292 293 295 295 295 296 296 296 297 297 297 298 297 298 297 296 294 293 292 289 286 283 281 278 275 272 269 266 264 262 260 258 257 256 255 254 254 254 256 256 255 255 255 255 256 256 255 255 254 251 249 249 248 246 245 244 243 242 242 243 243 244 244 245 244 244 243 243 243 244 244 245 245 245 246 246 246 246 246 246 246 246 246 246 246 247 247 247 248 248 248 249 249 250 250 250 251
293 294 294 295 295 295 296 296 296 296 296 297 297 296 295 293 292 291 289 287 285 282 280 277 274 271 269 267 265 263 261 259 257 256 255 253 253 253 254 255 255 255 254 254 254 254 255 255 255 253 251 250 250 249 248 247 245 244 243 243 243 244 245 246 246 246 246 245 244 244 244 245 245 245 245 246 246 247 247 247 247 246 247 247 247 247 247 248 248 248 248 248 249 249 250 250 251
293 293 293 294 294 294 295 295 295 296 296 296 296 296 295 294 292 290 288 286 284 282 280 276 273 270 269 267 266 264 262 260 258 256 255 253 252 252 252 254 255 255 255 254 254 254 254 254 254 254 253 251 250 249 248 248 247 247 246 245 245 245 247 247 248 248 248 248 247 246 245 245 245 245 245 245 246 246 247 247 247 247 248 248 248 248 248 248 248 248 248 249 249 249 249 250 250
292 292 293 293 294 294 294 294 295 295 296 296 295 295 293 293 292 290 288 286 284 282 279 276 273 271 268 267 266 265 262 261 259 257 255 253 252 252 252 253 254 255 255 255 255 255 255 254 254 254 254 253 251 250 250 249 248 247 247 247 246 246 247 248 249 250 250 250 250 249 248 247 247 247 246 246 246 246 247 248 248 248 249 249 249 248 248 249 248 248 248 249 249 249 249 249 250
292 292 293 293 293 293 293 294 294 295 294 294 294 293 291 290 290 289 287 285 284 282 280 277 274 272 270 268 267 265 263 261 260 258 257 254 252 252 252 252 253 253 254 254 254 254 254 254 253 253 254 254 253 252 251 250 249 248 247 247 247 246 246 247 248 249 250 250 251 251 251 250 250 249 249 247 247 247 248 248 248 249 249 249 249 249 249 249 249 249 249 249 249 249 249 249 250
291 292 292 293 293 293 293 293 294 294 293 292 292 291 290 289 288 287 285 284 283 281 280 278 275 273 271 269 268 266 263 262 261 260 259 256 253 252 251 252 252 252 253 253 253 253 253 253 252 252 253 253 254 253 252 251 251 250 249 248 247 246 246 246 247 248 249 250 250 251 251 251 251 251 251 250 248 248 248 248 249 248 249 249 249 249 250 250 250 250 250 250 250 250 250 250 250
291 291 292 292 292 292 292 293 294 293 292 291 291 290 289 288 287 286 284 283 282 280 279 277 275 273 271 269 268 266 265 263 262 260 259 257 255 253 251 251 251 251 251 252 252 252 253 253 253 252 252 253 253 253 252 252 252 252 251 250 248 248 247 246 246 247 248 249 250 250 250 250 251 251 251 251 250 249 249 249 249 249 249 249 249 249 250 250 250 250 251 251 251 251 251 251 251
290 291 291 292 291 292 293 293 293 292 290 290 290 289 288 287 286 285 284 282 280 279 277 275 274 272 271 269 267 265 264 263 262 260 259 257 255 253 252 251 251 250 250 251 252 252 252 253 254 253 252 252 253 253 253 252 252 252 252 251 250 249 249 248 247 247 247 248 249 250 250 250 251 251 251 251 251 250 250 250 250 250 250 249 249 249 250 250 250 251 251 251 251 251 252 252 252
290 291 291 291 291 292 293 292 291 290 289 289 289 288 287 286 285 285 283 282 280 278 276 274 273 272 270 269 268 266 263 261 261 260 258 257 256 254 253 252 251 251 250 251 251 252 253 253 253 254 253 253 252 253 253 253 253 252 252 252 252 251 251 250 249 248 248 248 249 249 250 250 250 251 251 252 252 251 251 250 250 250 251 251 251 251 251 251 251 251 252 252 252 253 253 253 253
290 290 291 291 291 292 292 291 291 291 290 289 289 288 287 286 285 284 282 281 279 278 276 274 274 272 270 269 268 266 264 261 260 259 258 257 256 255 254 253 252 251 251 250 250 251 253 254 254 254 254 254 253 252 252 253 253 253 252 252 252 252 252 252 252 251 250 250 250 250 250 250 250 250 251 252 252 252 251 251 251 251 251 252 252 252 252 252 251 252 252 252 253 253 253 253 253
290 290 291 291 291 292 291 291 292 292 291 291 290 289 288 287 285 283 282 280 279 277 275 275 275 274 272 270 267 264 263 261 260 259 258 257 256 254 253 253 253 252 251 251 250 250 251 253 254 254 254 254 254 253 252 252 253 253 253 253 253 253 253 253 253 253 252 252 252 252 252 251 251 251 251 251 252 252 252 251 251 251 251 252 252 252 252 253 252 252 252 252 252 252 252 253 253
291 291 291 291 292 292 292 292 292 292 292 291 291 289 288 286 285 284 282 281 279 276 275 276 276 274 273 270 267 264 262 260 259 259 259 258 257 255 253 252 252 252 252 252 252 251 251 250 251 252 253 254 254 255 254 253 253 253 253 253 253 254 254 254 254 254 254 254 254 254 254 253 254 253 253 252 252 253 252 252 252 252 252 252 252 252 252 253 253 253 253 253 253 253 253 253 253
292 292 292 293 293 293 293 293 293 292 292 291 290 289 287 286 284 283 282 281 279 276 277 279 277 274 272 269 267 265 263 262 260 259 259 258 258 256 254 252 251 251 251 251 252 252 251 251 251 251 252 252 253 254 255 255 254 254 254 253 253 254 254 254 254 254 254 255 256 256 256 255 255 255 255 255 255 255 255 254 254 254 254 253 253 253 253 253 253 253 254 254 254 254 254 254 254
293 293 293 294 295 294 294 294 293 292 291 290 290 289 287 285 284 283 281 280 277 278 281 281 278 275 272 269 266 265 265 264 262 261 259 258 257 257 256 254 252 251 250 250 250 250 251 251 252 252 252 252 252 252 253 254 255 255 255 254 254 254 254 254 254 254 254 254 255 256 256 256 256 257 257 257 257 257 257 257 257 256 256 256 255 255 255 255 255 255 255 255 255 255 255 255 255
294 294 295 295 295 295 294 294 293 293 292 291 290 288 286 285 284 283 281 278 278 282 285 283 279 275 272 269 267 266 265 264 263 262 260 259 258 257 257 256 255 253 251 250 250 250 250 250 251 251 252 253 253 253 253 253 254 255 255 256 255 255 255 255 254 254 254 254 254 255 255 256 256 257 257 257 258 258 258 259 259 259 258 258 258 257 257 257 257 257 257 256 256 256 257 257 256
295 295 295 295 295 295 295 294 294 293 292 290 289 287 285 284 284 283 281 280 283 287 285 281 277 273 271 270 269 267 266 264 263 261 260 260 260 259 258 257 256 255 254 253 251 250 250 250 250 251 251 252 253 254 254 254 254 255 255 256 256 255 255 255 255 254 254 255 255 255 255 255 256 256 256 257 257 257 258 258 259 259 260 260 260 259 259 259 258 258 258 258 258 258 258 258 258
296 296 296 296 296 295 295 295 294 293 292 290 289 286 284 284 284 283 282 285 288 286 280 277 274 272 271 270 270 268 267 265 264 262 261 261 260 260 259 258 257 256 256 255 254 253 252 252 251 251 251 252 252 252 253 253 254 254 255 255 255 255 255 255 255 255 255 255 255 255 256 256 256 256 256 256 256 257 257 257 258 258 259 259 260 260 260 259 259 259 259 258 258 259 259 259 259
296 297 297 297 297 297 296 296 295 294 293 291 289 287 285 285 286 285 286 288 286 280 277 276 275 274 273 272 271 270 268 267 266 265 264 262 261 260 259 258 258 258 257 256 256 255 254 254 253 252 252 252 252 252 252 252 253 253 253 254 254 254 255 255 255 255 255 255 255 255 256 256 256 256 256 256 256 256 256 256 257 257 258 258 258 259 259 259 260 260 259 259 259 258 258 258 259
298 298 298 299 299 298 298 297 296 295 293 292 289 286 285 287 289 287 287 286 282 279 278 278 277 277 277 276 275 273 271 270 268 267 266 264 262 261 260 259 259 258 258 258 257 256 256 255 255 254 253 253 253 253 252 252 252 253 253 254 254 254 254 255 255 255 255 255 255 255 255 256 256 256 256 256 256 256 256 256 256 256 256 257 257 257 258 259 259 260 260 260 260 260 259 259 259
299 300 300 300 300 299 299 298 296 296 294 293 290 287 286 290 290 287 286 284 282 282 280 280 280 279 279 278 276 274 272 270 269 268 266 264 264 263 263 262 260 259 259 259 258 257 257 257 256 255 254 254 254 254 254 253 253 253 253 253 254 254 254 255 255 255 255 254 254 254 254 254 255 256 256 256 256 256 256 256 256 256 256 256 257 257 257 258 258 258 259 259 260 260 260 261 261
301 300 300 300 300 301 301 300 298 298 297 295 293 289 290 293 292 289 288 286 284 282 282 282 281 280 279 278 276 274 272 271 270 268 266 265 265 264 264 263 262 261 261 260 259 259 258 257 256 256 255 255 255 255 254 254 253 253 253 253 254 255 255 255 255 255 255 254 254 254 253 253 253 253 254 254 255 255 256 256 256 257 257 257 258 258 258 258 258 258 258 258 259 259 259 260 260
302 302 303 302 302 303 303 302 301 301 300 299 297 294 294 296 294 292 290 289 287 285 285 284 282 281 279 278 277 275 274 272 271 269 268 267 267 266 265 265 264 263 262 262 261 260 259 258 257 257 256 255 255 255 254 254 254 253 253 253 254 255 255 256 256 256 255 255 254 254 253 252 252 252 252 252 252 253 254 255 256 256 257 257 258 258 259 259 259 259 259 258 258 258 259 259 259
304 304 305 306 305 305 305 304 304 304 303 302 301 297 298 300 296 293 291 290 289 288 288 287 284 283 281 280 278 276 275 273 271 269 268 268 268 267 266 265 264 263 262 262 261 261 261 260 260 259 258 257 256 256 256 255 255 255 254 254 254 255 255 255 256 256 256 256 255 254 254 253 253 253 253 252 252 252 252 253 254 254 255 255 256 256 257 258 258 258 259 259 259 259 259 259 259
306 307 308 308 309 309 308 308 307 307 305 305 302 299 301 303 299 295 293 292 291 290 290 289 287 285 284 282 281 279 277 275 273 272 270 270 269 267 266 265 265 264 264 263 263 263 263 263 262 262 261 260 259 258 258 257 256 256 255 255 254 255 255 256 256 256 256 256 256 255 255 254 254 254 254 254 253 253 253 253 253 253 253 254 254 255 255 256 256 257 257 258 258 259 259 260 260
308 309 310 311 311 312 311 311 310 309 308 307 304 302 304 305 301 298 297 294 292 292 292 291 290 289 287 285 284 283 281 279 277 275 274 272 270 268 267 268 267 267 266 265 264 264 263 262 262 262 261 260 260 259 259 259 258 257 257 256 256 255 255 256 256 256 256 256 256 256 255 255 255 255 255 255 254 254 254 254 253 253 253 253 254 254 255 255 255 256 256 257 257 258 258 259 259
310 311 312 313 314 314 313 313 313 312 311 309 305 304 306 304 300 300 298 294 293 292 291 291 290 290 289 288 286 285 284 282 280 279 277 275 273 272 271 270 269 267 267 266 265 265 264 263 263 262 261 260 259 259 259 259 259 259 258 257 257 256 255 255 255 256 256 256 256 256 257 256 256 256 255 255 255 254 254 254 254 254 254 254 254 255 255 255 255 255 255 256 256 257 257 258 258
310 312 313 314 316 317 316 316 315 314 313 311 307 306 307 304 301 301 298 294 293 292 291 290 289 288 288 287 287 286 285 285 284 282 280 278 276 275 273 272 271 270 268 267 267 267 266 266 265 264 264 263 262 261 260 260 259 259 258 258 257 257 256 256 256 256 256 257 258 258 258 257 257 256 256 255 255 254 254 254 254 255 255 255 255 255 256 256 256 256 256 256 256 257 257 258 258
310 312 314 315 316 317 317 318 317 316 315 314 310 308 308 305 303 302 298 295 294 293 292 291 290 290 289 288 288 287 286 286 285 284 282 280 278 276 275 274 272 271 271 270 269 269 268 267 267 266 266 265 264 264 263 261 260 260 259 258 258 257 257 257 257 257 257 257 258 258 257 257 257 256 256 256 255 255 255 255 256 256 256 256 256 257 257 257 257 257 257 258 258 258 258 258 258
311 312 314 315 316 316 317 318 318 318 316 315 312 309 309 307 305 303 299 296 294 293 292 292 293 294 294 293 292 290 288 287 285 284 282 280 278 276 274 272 271 271 270 270 270 269 269 269 268 268 267 267 266 265 263 262 262 261 260 259 259 258 258 258 258 258 258 257 257 257 257 257 257 257 257 257 257 257 257 257 257 258 258 258 258 258 258 258 259 259 259 259 259 258 258 258 258
312 313 313 314 315 315 316 316 317 318 317 316 314 311 309 307 306 304 301 300 299 297 297 298 299 299 298 297 295 293 290 287 285 283 281 279 277 276 274 272 270 269 268 268 268 268 268 268 268 268 268 268 267 265 264 263 263 262 261 261 260 259 259 259 258 258 258 258 257 258 257 257 257 257 258 258 258 259 259 259 259 259 259 259 259 259 259 259 259 259 259 259 259 259 259 259 259
311 312 313 314 314 314 314 315 315 317 316 316 316 313 310 308 305 303 301 302 304 304 305 306 306 303 300 298 295 293 289 287 284 282 280 279 277 276 275 273 272 270 269 268 267 267 267 267 267 267 267 267 267 267 266 265 264 263 262 262 262 261 260 260 259 258 258 258 258 258 258 258 258 258 258 259 259 259 259 259 259 259 259 259 259 259 259 259 259 259 259 259 259 259 260 260 260
310 311 312 312 313 313 314 314 314 316 316 316 317 315 313 310 307 304 302 302 306 309 310 309 306 303 299 296 294 292 290 288 286 283 281 280 278 277 276 275 274 273 271 270 270 269 268 267 266 266 266 267 267 267 267 266 265 264 264 263 262 262 261 261 260 260 259 259 258 258 258 258 258 259 259 259 259 259 259 259 259 259 259 259 259 259 259 259 259 259 259 260 260 260 260 260 260
309 309 310 310 310 311 312 312 313 314 314 315 316 316 314 311 309 307 304 304 307 310 310 308 305 303 301 299 298 297 295 293 291 289 287 285 283 281 279 278 276 275 273 272 272 271 270 269 269 268 268 268 268 267 267 266 266 266 265 264 263 262 262 261 261 261 260 260 260 260 260 259 259 260 260 259 259 259 259 259 259 259 259 259 259 259 260 260 260 260 260 260 260 260 260 260 260
309 309 309 308 308 309 309 309 311 311 312 312 312 313 313 311 310 309 309 310 310 309 307 304 302 300 299 299 298 297 296 295 295 294 292 291 289 287 285 283 281 279 277 275 273 271 270 270 269 269 269 268 268 268 268 267 267 266 265 264 264 263 262 262 261 261 260 260 261 261 261 261 261 260 260 260 259 259 259 259 259 259 259 259 260 260 260 260 260 260 260 260 260 260 260 260 261
311 310 309 308 308 308 308 307 308 309 309 309 308 308 309 309 307 309 312 313 312 310 306 302 299 297 296 296 295 293 292 291 291 291 292 291 290 288 287 286 284 282 281 279 277 275 274 272 271 270 269 269 268 268 268 268 268 267 266 266 265 264 264 263 262 261 261 261 261 261 261 261 261 261 260 260 260 260 260 259 259 259 259 259 259 259 259 260 260 260 260 260 260 260 260 260 260
311 310 310 310 309 308 308 307 307 307 307 307 304 301 303 304 303 306 310 309 309 308 306 304 302 299 297 296 294 292 291 289 288 287 287 287 286 286 285 284 283 282 281 280 278 277 276 275 275 274 273 271 270 269 269 269 269 268 268 267 266 266 265 264 263 263 263 262 262 262 261 261 260 260 260 260 260 260 260 260 260 260 260 260 260 259 259 259 259 260 260 260 260 260 260 260 260
310 310 310 310 309 310 309 308 308 308 308 307 301 299 302 302 299 301 303 302 302 302 302 302 302 300 299 297 294 293 291 289 288 287 286 285 284 284 283 282 281 280 280 280 279 277 275 274 274 273 273 272 272 271 271 270 269 269 269 268 267 266 265 264 264 264 264 263 263 263 262 262 261 261 260 260 260 260 260 260 260 260 260 260 260 260 260 260 260 260 260 260 260 260 260 260 260
309 309 309 309 309 309 308 309 309 308 309 306 299 299 302 301 298 297 296 296 296 296 296 297 298 298 298 297 296 294 292 290 289 288 287 285 284 282 282 281 280 279 279 279 279 278 276 275 273 271 270 270 270 271 271 270 270 269 268 267 267 266 265 265 265 265 264 264 264 263 263 263 262 262 262 261 261 261 261 260 260 260 260 260 260 260 260 261 260 260 260 261 261 261 261 261 260
308 308 308 308 308 308 308 310 309 307 309 305 300 300 301 300 298 295 293 292 291 291 292 293 293 294 295 295 294 293 292 291 290 289 288 287 286 284 282 281 279 278 278 277 277 277 276 275 274 272 270 269 269 270 270 270 269 269 268 267 266 266 265 265 265 265 265 265 264 264 264 264 264 264 264 263 263 263 262 262 262 261 261 261 261 261 261 261 261 261 261 261 261 261 261 261 261
307 308 308 308 307 307 308 309 308 308 309 306 302 301 301 300 299 295 292 290 290 290 290 289 289 289 289 290 290 290 290 290 289 289 289 288 287 286 285 283 280 279 277 276 275 274 274 273 272 271 270 270 270 270 269 269 268 268 267 267 266 266 266 265 265 265 265 265 265 265 265 265 265 265 265 264 264 264 263 263 263 262 262 262 262 262 262 262 262 262 262 262 262 262 262 262 262
307 308 308 308 308 307 307 309 309 309 309 306 304 303 301 300 298 295 294 292 291 289 288 287 286 286 286 286 286 287 287 287 288 288 288 287 286 285 284 283 282 280 278 276 274 273 272 271 270 269 268 268 269 269 269 269 268 267 266 265 265 265 265 266 266 266 265 265 265 265 266 266 265 265 265 265 264 264 263 263 263 263 262 262 262 262 262 262 262 262 262 262 262 262 262 262 262
308 309 309 309 308 307 308 309 309 309 309 306 305 303 301 299 298 297 296 294 292 290 287 285 284 284 284 284 284 284 284 284 285 285 285 285 285 284 284 283 283 282 280 278 276 274 273 272 270 269 267 266 266 267 267 268 268 267 266 266 265 264 264 264 265 265 266 266 266 265 265 265 265 265 265 265 265 264 264 264 263 263 263 262 262 262 262 262 262 262 262 262 263 263 263 263 263
309 309 309 309 309 307 309 309 308 308 308 306 306 304 301 300 300 299 296 295 293 290 288 287 285 284 284 283 282 282 282 282 282 283 283 283 283 283 283 282 282 283 282 281 279 277 276 274 273 272 271 269 267 266 265 266 266 267 267 267 266 266 265 265 264 264 265 265 266 266 266 266 265 265 265 265 265 265 264 264 264 264 263 263 263 262 262 262 262 262 262 262 262 263 263 263 263
310 310 309 309 308 308 309 309 309 308 307 307 307 304 302 302 301 299 298 296 294 292 291 290 288 287 286 285 284 283 283 282 282 281 281 281 281 281 281 281 280 280 280 281 280 279 277 276 274 274 273 271 270 268 266 265 265 265 265 265 266 266 266 266 265 264 264 264 264 265 265 265 265 265 265 265 265 265 265 264 264 263 263 263 262 262 262 262 262 262 262 263 263 263 263 263 263
310 309 308 308 308 308 309 309 309 308 307 308 307 304 303 303 302 301 299 297 296 294 293 292 290 289 287 286 285 283 282 281 280 279 279 278 277 277 278 279 278 278 277 278 278 277 277 275 274 273 272 271 271 269 268 267 266 265 264 264 263 264 264 265 265 264 264 263 263 262 263 263 264 264 265 265 265 265 264 264 264 263 263 263 263 262 262 262 262 262 262 263 263 263 263 263 263
310 309 309 308 308 308 308 308 309 308 307 307 307 306 305 304 303 302 300 299 297 296 294 293 291 290 289 287 285 284 283 281 280 279 279 279 278 277 276 277 277 277 277 277 276 276 276 276 275 275 274 272 271 271 270 269 268 267 266 265 264 263 263 263 263 263 263 263 263 262 261 261 261 261 262 263 263 264 264 264 264 263 263 262 262 262 262 262 262 262 262 262 262 262 262 262 262
310 310 309 309 309 309 308 308 308 307 306 307 307 306 306 305 304 302 301 300 298 296 295 294 293 292 291 289 288 286 285 284 283 282 281 280 280 279 279 278 278 277 278 277 277 277 277 277 276 276 275 274 273 272 271 270 269 268 268 267 266 265 264 263 262 262 262 262 262 262 262 262 261 261 261 261 261 262 262 263 263 263 262 262 262 261 261 261 261 261 261 261 261 261 261 261 262
310 310 309 309 309 309 308 308 307 307 306 306 306 306 305 305 304 302 301 299 298 298 298 297 296 295 294 293 292 290 289 288 286 285 284 283 282 281 280 280 279 278 278 278 277 277 277 277 276 276 276 275 275 274 272 271 269 268 267 267 266 265 265 264 263 262 261 261 260 260 261 261 262 262 261 261 261 261 261 261 261 261 261 261 261 261 261 261 261 260 260 260 260 261 261 261 261
310 309 309 309 309 308 308 307 307 306 306 306 306 305 305 304 303 301 300 299 299 298 298 297 296 296 295 294 293 292 292 291 290 288 287 286 285 283 282 281 280 280 279 278 278 277 276 276 276 275 275 274 274 274 273 272 271 270 268 267 266 265 265 264 264 263 262 261 261 260 259 259 259 260 260 260 260 260 260 260 260 260 260 260 260 260 260 260 260 260 260 260 260 260 260 260 261
310 310 309 309 308 307 307 307 307 306 306 306 305 305 306 305 302 300 300 299 299 299 298 297 296 296 295 294 293 292 292 291 290 289 289 288 287 286 284 283 282 281 280 279 279 278 277 276 276 276 275 274 274 273 273 273 272 271 270 269 268 267 266 265 265 264 263 263 262 261 260 259 259 258 258 259 259 259 259 260 260 260 260 260 260 260 260 260 260 260 260 260 260 260 260 260 260
310 310 309 308 307 307 306 306 306 306 306 306 305 305 307 305 302 301 301 301 300 300 299 298 297 296 295 294 293 292 291 290 290 289 288 287 286 285 285 284 283 282 281 280 279 278 277 277 276 276 275 275 275 274 273 273 272 272 271 270 269 268 267 266 266 265 264 264 263 262 262 261 260 260 259 259 259 259 259 259 260 260 261 261 260 260 260 260 260 260 260 260 260 260 260 260 260